Location: Aurora Center
(43.5271°N, 98.5894°W)
Time: 03:49:12
(UTC-05:00)

A-11 Canister half - All Passes

Search period start: 15 July 2024 00:00
Search period end: 25 July 2024 00:00
Orbit: 1515 x 1685 km, 47.2° (Epoch: 14 July)

Date Brightness Start Highest point End Pass type
(mag) Time Alt. Az. Time Alt. Az. Time Alt. Az.
15 Jul - 11:08:35 10° S 11:16:40 30° SE 11:24:55 10° ENE daylight
15 Jul - 13:10:39 10° SW 13:20:37 76° SSE 13:30:47 10° ENE daylight
15 Jul - 15:15:53 10° W 15:26:02 73° N 15:36:15 10° E daylight
15 Jul - 17:21:33 10° WNW 17:31:48 85° NNE 17:41:56 10° ESE daylight
15 Jul - 19:26:55 10° WNW 19:36:30 49° SW 19:45:53 10° SSE daylight
15 Jul - 21:35:24 10° W 21:39:34 13° WSW 21:43:42 10° SSW visible
16 Jul - 10:45:57 10° S 10:53:46 28° SE 11:01:45 10° ENE daylight
16 Jul - 12:47:42 10° SW 12:57:37 73° SSE 13:07:45 10° ENE daylight
16 Jul - 14:52:49 10° W 15:02:58 74° N 15:13:10 10° ENE daylight
16 Jul - 16:58:30 10° WNW 17:08:45 83° NNE 17:18:54 10° ESE daylight
16 Jul - 19:03:51 10° WNW 19:13:32 52° SW 19:23:03 10° SSE daylight
16 Jul - 21:11:47 10° W 21:16:42 15° WSW 21:21:34 10° SSW daylight
17 Jul - 10:23:19 10° S 10:30:52 26° SE 10:38:34 10° ENE daylight
17 Jul - 12:24:45 10° SW 12:34:37 70° SSE 12:44:42 10° ENE daylight
17 Jul - 14:29:46 10° W 14:39:53 75° N 14:50:07 10° ENE daylight
17 Jul - 16:35:27 10° WNW 16:45:42 81° NNE 16:55:53 10° ESE daylight
17 Jul - 18:40:47 10° WNW 18:50:34 54° SW 19:00:10 10° SE daylight
17 Jul - 20:48:17 10° W 20:53:50 16° WSW 20:59:19 10° SSW daylight
18 Jul - 10:00:43 10° S 10:07:58 24° SE 10:15:21 10° E daylight
18 Jul - 12:01:49 10° SW 12:11:37 67° SSE 12:21:39 10° ENE daylight
18 Jul - 14:06:43 10° W 14:16:49 75° N 14:27:04 10° ENE daylight
18 Jul - 16:12:24 10° WNW 16:22:38 80° NNE 16:32:50 10° ESE daylight
18 Jul - 18:17:44 10° WNW 18:27:35 57° SW 18:37:17 10° SE daylight
18 Jul - 20:24:53 10° W 20:30:57 18° SW 20:36:57 10° SSW daylight
19 Jul - 09:38:11 10° S 09:45:04 22° SE 09:52:06 10° E daylight
19 Jul - 11:38:54 10° SW 11:48:37 65° SE 11:58:36 10° ENE daylight
19 Jul - 13:43:41 10° W 13:53:45 76° N 14:04:00 10° ENE daylight
19 Jul - 15:49:22 10° WNW 15:59:35 79° NNE 16:09:47 10° E daylight
19 Jul - 17:54:41 10° WNW 18:04:37 60° SW 18:14:24 10° SE daylight
19 Jul - 20:01:32 10° W 20:08:03 20° SW 20:14:31 10° SSW daylight
20 Jul - 09:15:40 10° SSE 09:22:11 20° SE 09:28:49 10° E daylight
20 Jul - 11:16:01 10° SW 11:25:39 62° SE 11:35:33 10° ENE daylight
20 Jul - 13:20:38 10° W 13:30:41 78° NNW 13:40:57 10° ENE daylight
20 Jul - 15:26:20 10° WNW 15:36:31 77° NNE 15:46:44 10° E daylight
20 Jul - 17:31:39 10° WNW 17:41:37 63° SW 17:51:29 10° SE daylight
20 Jul - 19:38:14 10° W 19:45:10 21° SW 19:52:02 10° S daylight
21 Jul - 08:53:13 10° SSE 08:59:18 19° SE 09:05:30 10° E daylight
21 Jul - 10:53:07 10° SW 11:02:40 59° SE 11:12:30 10° ENE daylight
21 Jul - 12:57:36 10° WSW 13:07:38 79° NNW 13:17:53 10° ENE daylight
21 Jul - 15:03:17 10° WNW 15:13:27 76° N 15:23:40 10° E daylight
21 Jul - 17:08:37 10° WNW 17:18:38 65° SW 17:28:33 10° SE daylight
21 Jul - 19:14:58 10° W 19:22:16 23° SW 19:29:29 10° S daylight
22 Jul - 08:30:50 10° SSE 08:36:26 17° ESE 08:42:07 10° E daylight
22 Jul - 10:30:15 10° SW 10:39:42 56° SE 10:49:26 10° ENE daylight
22 Jul - 12:34:34 10° WSW 12:44:34 80° NNW 12:54:49 10° ENE daylight
22 Jul - 14:40:14 10° WNW 14:50:23 75° N 15:00:36 10° E daylight
22 Jul - 16:45:34 10° WNW 16:55:38 68° SSW 17:05:37 10° SE daylight
22 Jul - 18:51:45 10° W 18:59:22 25° SW 19:06:54 10° S daylight
23 Jul - 08:08:32 10° SSE 08:13:34 15° ESE 08:18:40 10° E daylight
23 Jul - 10:07:23 10° SW 10:16:44 53° SE 10:26:23 10° ENE daylight
23 Jul - 12:11:33 10° WSW 12:21:31 82° NNW 12:31:46 10° ENE daylight
23 Jul - 14:17:11 10° WNW 14:27:18 74° N 14:37:32 10° E daylight
23 Jul - 16:22:32 10° WNW 16:32:37 71° SSW 16:42:40 10° SE daylight
23 Jul - 18:28:33 10° WNW 18:36:28 27° SW 18:44:17 10° S daylight
24 Jul - 07:46:20 10° SSE 07:50:42 14° ESE 07:55:07 10° E daylight
24 Jul - 09:44:32 10° SSW 09:53:46 50° SE 10:03:18 10° ENE daylight
24 Jul - 11:48:32 10° WSW 11:58:28 83° NNW 12:08:42 10° ENE daylight
24 Jul - 13:54:09 10° W 14:04:14 74° N 14:14:28 10° E daylight
24 Jul - 15:59:30 10° WNW 16:09:37 74° SSW 16:19:42 10° SE daylight
24 Jul - 18:05:23 10° WNW 18:13:32 29° SW 18:21:38 10° S daylight
